Погода в Китченере

Канада     43°26′21″N   80°28′20″W
темп.,
°C
ветер,
м/с
пор.,
м/с
влажн.,
%
обл.,
%
осадки,
мм/ч
давл.,
гПа
погр.,
м
18 сентября, сб
сб1823:00+18зюз369039 0.0 1018106
02:00+17зсз479122 0.0 1018130
05:00+15ссз4118866 0.0 1019282
08:00+15с4963100 0.0 1021264
11:00+20с45443 0.0 1021575
14:00+24с33310 0.0 10201253
17:00+23ссз44302 0.0 10201393
20:00+14с494974 0.0 1022138
19 сентября, вс
вс1923:00+10с474826 0.0 1023104
02:00+9св335842 0.0 102427
05:00+9св227169 0.0 102417
08:00+10всв33645 0.0 102557
11:00+18вюв34410 0.0 1024604
14:00+22юв33331 0.0 10231044
17:00+23юв33330 0.0 10211103
20:00+14вюв46620 0.0 102280
20 сентября, пн
пн2023:00+11вюв36760 0.0 102382
02:00+11вюв359032 0.0 102369
05:00+11вюв349040 0.0 102347
08:00+11вюв3586100 0.0 102391
11:00+21ююв46498 0.0 1022496
14:00+26ююв563879 0.0 10211112
17:00+25юв5743100 0.0 1019991
20:00+17вюв3775100 0.0 1020111
21 сентября, вт
вт2123:00+18ю3590100 0.1 1020125
02:00+18ю41197100 0.1 1020298
05:00+18ю61396100 0.3 1020511
08:00+17ю71496100 1.9 1020689
11:00+17ю81696100 1.3 1020709
14:00+18ю81491100 1.8 1019818
17:00+19ю71288100 0.4 1017761
20:00+18ююв71389100 0.9 1015607
22 сентября, ср
ср2223:00+17ю71596100 3.9 1013712
02:00+17ю71498100 27.1 1010756
05:00+16зсз6997100 6.5 1009454
08:00+13сз81392100 11.4 1010657
11:00+13сз81183100 0.0 1013777
14:00+13сз81174100 0.1 1014916
17:00+11сз71173100 0.0 1015960
20:00+10ссз61073100 0.0 10181250